Tracking 29892 objects as of 21-Nov-2024
HD Live streaming from Space Station
objects crossing your sky now

STARLINK-31141

Track STARLINK-31141 now!
10-day predictions
STARLINK-31141 is classified as:


NORAD ID: 58803
Int'l Code: 2024-012S
Perigee: 494.3 km
Apogee: 496.0 km
Inclination: 43.0 °
Period: 94.4 minutes
Semi major axis: 6866 km
RCS: Unknown
Launch date: January 15, 2024
Source: United States (US)
Launch site: AIR FORCE EASTERN TEST RANGE (AFETR)
Your satellite tracking list
Your tracking list is empty




NASA's NSSDC Master Catalog

Two Line Element Set (TLE):
1 58803U 24012S   24325.38750567  .00001364  00000-0  61969-4 0  9999
2 58803  43.0010 319.8992 0001206 205.5108 154.5684 15.25920109 48745
Source of the keplerian elements: AFSPC